Overview Statistics Trail Chart Weather Telemetry Raw packets
 

This is the latest recevied weather packets stored in our database for station/object K4IR. If no packets are shown the sender has not sent any weather packets the latest 10 day(s).

<< 54 55 56 57 58 >>
Time Temp. Humidity Pressure Rain* Wind** Luminosity Snow
1787794273 23.89° C 96% 1017.6 hPa 0 mm - 0 W/m² -
1787793668 23.89° C 96% 1017.4 hPa 0 mm - 0 W/m² -
1787793062 23.89° C 95% 1017.4 hPa 0 mm - 0 W/m² -
1787792462 23.89° C 95% 1017.1 hPa 0 mm - 0 W/m² -
1787791859 24.44° C 94% 1017.1 hPa 0 mm - 0 W/m² -
1787791255 24.44° C 94% 1017 hPa 0 mm - 0 W/m² -
1787790651 24.44° C 93% 1017.2 hPa 0 mm - 0 W/m² -
1787790047 25° C 92% 1016.9 hPa 0 mm - 0 W/m² -
1787789443 25° C 92% 1016.7 hPa 0 mm - 0 W/m² -
1787788842 25.56° C 91% 1016.7 hPa 0 mm - 0 W/m² -
1787788242 25.56° C 90% 1016.7 hPa 0 mm - 1 W/m² -
1787787638 26.11° C 89% 1016.9 hPa 0 mm - 4 W/m² -
1787787037 26.67° C 87% 1016.8 hPa 0 mm - 9 W/m² -
1787786438 26.67° C 86% 1016.9 hPa 0 mm - 20 W/m² -
1787785835 27.22° C 84% 1017 hPa 0 mm - 33 W/m² -
1787785230 27.22° C 83% 1017 hPa 0 mm - 44 W/m² -
1787784629 27.78° C 83% 1017 hPa 0 mm - 65 W/m² -
1787784030 27.78° C 82% 1016.8 hPa 0 mm - 80 W/m² -
1787783426 27.78° C 82% 1017 hPa 0 mm - 87 W/m² -
1787782821 27.78° C 81% 1017.1 hPa 0 mm - 92 W/m² -
1787782222 28.33° C 81% 1017 hPa 0 mm - 100 W/m² -
1787781618 28.33° C 79% 1017.1 hPa 0 mm - 110 W/m² -
1787781014 28.33° C 79% 1016.9 hPa 0 mm - 132 W/m² -
1787780415 28.33° C 78% 1017.2 hPa 0 mm - 129 W/m² -
1787779812 28.33° C 76% 1017.2 hPa 0 mm - 134 W/m² -

* Rain latest hour (hover to see other rain measurements)
** Current wind speed in m/s (hover to see current wind gust speed)